sat.trackr.live / text

‹ back to catalog

HORS 4 (RS82S)

NORAD 61754 · 2024-199V

PAYLOAD ACTIVE UNKNOWN

§ Identity

Operator
Country
CIS
Launch date
2024-11-04
Launch site
VOSTO
Launch vehicle
Mass (kg)
RCS (m²)

Purposes: comms

External: N2YO · Heavens-Above · Gunter

§ Orbital elements

Epoch: 2026-05-25T04:38:39.135264Z

Period
92.47 min
Inclination
97.2966°
Eccentricity
0.0005659
Mean motion
15.57330693 rev/d
Perigee alt
391.6 km
Apogee alt
399.2 km
Semi-major
6,773.5 km
B*
6.3205e-4
RAAN
21.6641°
Arg perigee
24.9667°
Mean anomaly
335.1861°
Rev number
13,406

§ Raw data

HORS 4 (RS82S)1 61754U 24199V   26145.19350851  .00046293  00000+0  63205-3 0  99902 61754  97.2966  21.6641 0005659  24.9667 335.1861 15.57330693134066

JSON: /api/v1/satellites/61754 · /tle

For live sub-satellite position, see the globe view (requires WebGL).

§ Visibility from observer

Set your observer location to see the next 7 days of passes ≥ 10°. The values pass through the URL so the page stays shareable.

No JS? Fill the form by hand. The geolocation button needs JavaScript.

§ Radio — SatNOGS DB

ModeDescriptionDownlinkUplink
FSK Mode U - FSK38k4 435.700 MHz

1 transmitter · refreshed weekly from db.satnogs.org